Home   Weather   Allentown   Past weeks

Flag for USA Past Weather in Allentown, Pennsylvania, USA — Yesterday and Last 2 Weeks

Now
43 °F

Clear.


Feels Like: 43 °F
Forecast: 42 / 59 °F
Wind: No wind

Location: Lehigh Valley International Airport

Current Time: Apr 24, 2017 at 3:36:53 am

Latest Report: Apr 24, 2017 at 2:51 am


Visibility: 10 mi

Pressure: 30.09 "Hg

Humidity: 86%

Dew Point: 39 °F

Location of AllentownLocation

Past Weather in Allentown — Graph

°F

Allentown Temperature Yesterday

Maximum temperature yesterday: 67 °F (at 5:51 pm)
Minimum temperature yesterday: 38 °F (at 5:51 am)
Average temperature yesterday: 54 °F

High & Low Weather Summary for the Past Weeks

 TemperatureHumidityPressure
High85 °F (Apr 11, 3:51 pm)93% (Apr 17, 1:56 am)30.49 "Hg (Apr 17, 1:56 am)
Low31 °F (Apr 9, 5:51 am)19% (Apr 9, 2:51 pm)29.79 "Hg (Apr 16, 5:51 pm)
Average58 °F57%30.14 "Hg
* Reported Apr 9 1:51 am — Apr 24 1:51 am, Allentown, Weather by CustomWeather, © 2017

Note: Actual official high and low records may vary slightly from our data, if they occured in-between our weather recording intervals... More about our weather records

Advertising

Allentown Weather History for the Previous 24 Hours

Scroll right to see more
 ConditionsComfort  
Time TempWeatherWind HumidityBarometerVisibility
1:51 am
Mon, Apr 24
46 °FClear.No wind77%30.09 "Hg10 mi
12:51 am53 °FClear.5 mph69%30.11 "Hg10 mi
11:51 pm
Sun, Apr 23
55 °FClear.6 mph57%30.11 "Hg10 mi
10:51 pm55 °FClear.3 mph55%30.10 "Hg10 mi
9:51 pm59 °FClear.5 mph46%30.09 "Hg10 mi
8:51 pm59 °FClear.3 mph44%30.08 "Hg10 mi
7:51 pm60 °FClear.5 mph44%30.06 "Hg10 mi
6:51 pm64 °FSunny.3 mph37%30.05 "Hg10 mi
5:51 pm67 °FSunny.No wind35%30.05 "Hg10 mi
4:51 pm66 °FSunny.No wind32%30.05 "Hg10 mi
3:51 pm63 °FSunny.No wind35%30.06 "Hg10 mi
2:51 pm64 °FSunny.5 mph35%30.08 "Hg10 mi
1:51 pm63 °FSunny.5 mph37%30.09 "Hg10 mi
12:51 pm61 °FSunny.No wind38%30.12 "Hg10 mi
11:51 am59 °FSunny.5 mph46%30.14 "Hg10 mi
10:51 am56 °FSunny.7 mph47%30.14 "Hg10 mi
9:51 am53 °FSunny.7 mph52%30.14 "Hg10 mi
8:51 am50 °FSunny.3 mph59%30.14 "Hg10 mi
7:51 am45 °FSunny.No wind68%30.13 "Hg10 mi
6:51 am40 °FSunny.3 mph77%30.11 "Hg10 mi
5:51 am38 °FClear.5 mph76%30.08 "Hg10 mi
4:51 am41 °FClear.No wind70%30.07 "Hg10 mi
3:51 am40 °FClear.No wind73%30.06 "Hg10 mi
Weather by CustomWeather, © 2017

See weather overviewHow to use our weather pages